Appleton, MN

8:18 AM CST on December 12, 2019 (GMT -0600)
Appleton Municipal

Weather History for KAQP - August, 2019

Change the Weather History Date:

Tuesday, August 20, 2019

  Actual Average Record
Temperature  
Mean Temperature 73 °F -  
Max Temperature 82 °F 77 °F 93 °F (2013)
Min Temperature 62 °F 55 °F 33 °F (2006)
Cooling Degree Days 8    
Growing Degree Days 23 (Base 50)    
Moisture  
Dew Point 66 °F    
Average Humidity 78    
Maximum Humidity 89    
Minimum Humidity 58    
Precipitation  
Precipitation 0.00 in - - ()
Sea Level Pressure  
Sea Level Pressure 29.94 in    
Wind  
Wind Speed 4 mph (NNE)    
Max Wind Speed 14 mph    
Max Gust Speed 21 mph    
Visibility 10 miles    
Events      
Averages and records for this station are not official NWS values.
T = Trace of Precipitation, MM = Missing Value Source: NWS Daily Summary

Daily Weather History Graph

Daily Weather History Graph

Search for Another Location

Airport or City:

Astronomy

Aug. 20, 2019 Rise Set
Actual Time 6:31 AM CDT 8:22 PM CDT
Civil Twilight 5:59 AM CDT 8:54 PM CDT
Nautical Twilight 5:20 AM CDT 9:32 PM CDT
Astronomical Twilight 4:38 AM CDT 10:14 PM CDT
Moon 10:58 PM CDT (8/20) 11:22 AM CDT (8/20)
Length of Visible Light 14h 54m
Length of Day
13h 51m
Waning Gibbous, 77% of the Moon is Illuminated
Aug 20
Waning Gibbous
Aug 23
Last Quarter
Aug 30
New
Sep 5
First Quarter
Sep 13
Full

Hourly Weather History & Observations

Time (CDT) Temp. Heat Index Dew Point Humidity Pressure Visibility Wind Dir Wind Speed Gust Speed Precip Events Conditions
12:11 AM 71.6 °F - 66.2 °F 83% 29.92 in 10.0 mi ESE 5.8 mph - N/A   Clear
12:32 AM 71.6 °F - 66.2 °F 83% 29.92 in 10.0 mi SE 6.9 mph - N/A   Clear
12:54 AM 71.6 °F - 66.2 °F 83% 29.91 in 10.0 mi SSE 6.9 mph - N/A   Clear
1:11 AM 71.6 °F - 66.2 °F 83% 29.91 in 10.0 mi SE 4.6 mph - N/A   Clear
1:34 AM 69.8 °F - 66.2 °F 88% 29.90 in 10.0 mi SE 4.6 mph - N/A   Clear
1:51 AM 69.8 °F - 66.2 °F 88% 29.90 in 10.0 mi SE 5.8 mph - N/A   Clear
2:11 AM 71.6 °F - 66.2 °F 83% 29.89 in 10.0 mi SE 6.9 mph - N/A   Clear
2:32 AM 71.6 °F - 66.2 °F 83% 29.88 in 10.0 mi SE 5.8 mph - N/A   Scattered Clouds
3:11 AM 71.6 °F - 66.2 °F 83% 29.87 in 10.0 mi Calm Calm - N/A   Mostly Cloudy
3:30 AM 71.6 °F - 66.2 °F 83% 29.86 in 10.0 mi Calm Calm - N/A   Scattered Clouds
3:52 AM 69.8 °F - 66.2 °F 88% 29.86 in 10.0 mi Calm Calm - N/A   Scattered Clouds
4:13 AM 69.8 °F - 66.2 °F 88% 29.85 in 10.0 mi Calm Calm - N/A   Overcast
4:31 AM 69.8 °F - 66.2 °F 88% 29.85 in 10.0 mi Calm Calm - N/A   Overcast
4:52 AM 69.8 °F - 66.2 °F 88% 29.84 in 10.0 mi Calm Calm - N/A   Scattered Clouds
5:11 AM 69.8 °F - 66.2 °F 88% 29.84 in 10.0 mi Calm Calm - N/A   Scattered Clouds
5:31 AM 69.8 °F - 66.2 °F 88% 29.84 in 10.0 mi Calm Calm - N/A   Scattered Clouds
5:51 AM 71.6 °F - 66.2 °F 83% 29.84 in 10.0 mi SSE 4.6 mph - N/A   Mostly Cloudy
6:11 AM 71.6 °F - 66.2 °F 83% 29.84 in 10.0 mi SE 4.6 mph - N/A   Overcast
6:31 AM 71.6 °F - 66.2 °F 83% 29.84 in 10.0 mi SSE 5.8 mph - N/A   Overcast
6:51 AM 71.6 °F - 66.2 °F 83% 29.85 in 10.0 mi SSE 6.9 mph - N/A   Overcast
7:11 AM 71.6 °F - 66.2 °F 83% 29.85 in 10.0 mi SSE 5.8 mph - N/A   Overcast
7:33 AM 71.6 °F - 66.2 °F 83% 29.86 in 10.0 mi SSE 6.9 mph - N/A   Overcast
7:51 AM 71.6 °F - 68.0 °F 88% 29.88 in 10.0 mi SSW 4.6 mph - N/A   Overcast
8:10 AM 71.6 °F - 66.2 °F 83% 29.88 in 10.0 mi Calm Calm - N/A   Overcast
8:32 AM 73.4 °F - 68.0 °F 83% 29.89 in 10.0 mi Calm Calm - N/A   Mostly Cloudy
8:50 AM 73.4 °F - 68.0 °F 83% 29.90 in 10.0 mi Calm Calm - N/A   Mostly Cloudy
9:13 AM 73.4 °F - 68.0 °F 83% 29.91 in 7.0 mi Calm Calm - N/A   Overcast
9:31 AM 73.4 °F - 69.8 °F 88% 29.92 in 10.0 mi Calm Calm - N/A   Overcast
9:52 AM 73.4 °F - 69.8 °F 88% 29.92 in 10.0 mi Calm Calm - N/A   Overcast
10:11 AM 75.2 °F - 69.8 °F 83% 29.93 in 10.0 mi Calm Calm - N/A   Overcast
10:31 AM 75.2 °F - 71.6 °F 89% 29.93 in 10.0 mi Calm Calm - N/A   Overcast
10:51 AM 77.0 °F - 71.6 °F 83% 29.93 in 10.0 mi Calm Calm - N/A   Overcast
11:11 AM 77.0 °F - 71.6 °F 83% 29.94 in 2.5 mi Calm Calm - N/A   Haze
11:31 AM 73.4 °F - 68.0 °F 83% 29.96 in 7.0 mi ENE 8.1 mph - N/A   Overcast
11:51 AM 71.6 °F - 68.0 °F 88% 29.97 in 2.5 mi Calm Calm - N/A   Overcast
12:13 PM 73.4 °F - 68.0 °F 83% 29.97 in 10.0 mi Calm Calm - N/A   Mostly Cloudy
12:31 PM 73.4 °F - 68.0 °F 83% 29.97 in 10.0 mi Calm Calm - N/A   Overcast
12:52 PM 75.2 °F - 69.8 °F 83% 29.97 in 10.0 mi Calm Calm - N/A   Overcast
1:11 PM 75.2 °F - 69.8 °F 83% 29.98 in 10.0 mi Calm Calm - N/A   Mostly Cloudy
1:31 PM 75.2 °F - 69.8 °F 83% 29.98 in 10.0 mi Calm Calm - N/A   Mostly Cloudy
1:53 PM 77.0 °F - 69.8 °F 78% 29.98 in 10.0 mi Calm Calm - N/A   Scattered Clouds
2:16 PM 78.8 °F - 69.8 °F 74% 29.99 in 10.0 mi NNE 5.8 mph - N/A   Mostly Cloudy
2:31 PM 78.8 °F - 69.8 °F 74% 29.99 in 10.0 mi Calm Calm - N/A   Mostly Cloudy
2:53 PM 80.6 °F 82.7 °F 66.2 °F 61% 29.99 in 10.0 mi North 10.4 mph - N/A   Mostly Cloudy
3:11 PM 80.6 °F 82.7 °F 66.2 °F 61% 29.99 in 10.0 mi North 10.4 mph - N/A   Scattered Clouds
3:31 PM 80.6 °F 82.7 °F 66.2 °F 61% 29.99 in 10.0 mi North 11.5 mph - N/A   Clear
3:51 PM 80.6 °F 82.7 °F 66.2 °F 61% 29.99 in 10.0 mi North 11.5 mph - N/A   Clear
4:12 PM 82.4 °F 84.6 °F 66.2 °F 58% 29.98 in 10.0 mi NNW 11.5 mph 16.1 mph N/A   Clear
4:31 PM 82.4 °F 84.6 °F 66.2 °F 58% 29.98 in 10.0 mi NNW 13.8 mph 20.7 mph N/A   Clear
4:51 PM 80.6 °F 82.7 °F 66.2 °F 61% 30.00 in 10.0 mi NNW 13.8 mph 18.4 mph N/A   Clear
5:11 PM 78.8 °F - 66.2 °F 65% 30.00 in 10.0 mi North 12.7 mph 18.4 mph N/A   Clear
5:32 PM 78.8 °F - 64.4 °F 61% 30.00 in 10.0 mi NW 12.7 mph 17.3 mph N/A   Clear
5:51 PM 78.8 °F - 64.4 °F 61% 30.01 in 10.0 mi NNW 10.4 mph 16.1 mph N/A   Clear
6:14 PM 77.0 °F - 64.4 °F 65% 30.01 in 10.0 mi NNW 11.5 mph 18.4 mph N/A   Clear
6:31 PM 77.0 °F - 62.6 °F 61% 30.01 in 10.0 mi NNW 10.4 mph 17.3 mph N/A   Clear
6:51 PM 75.2 °F - 62.6 °F 65% 30.02 in 10.0 mi NW 9.2 mph - N/A   Clear
7:13 PM 75.2 °F - 62.6 °F 65% 30.02 in 10.0 mi NNW 6.9 mph - N/A   Clear
7:31 PM 73.4 °F - 62.6 °F 69% 30.02 in 10.0 mi NNW 6.9 mph - N/A   Clear
7:53 PM 73.4 °F - 62.6 °F 69% 30.02 in 10.0 mi NNW 8.1 mph - N/A   Clear
8:11 PM 71.6 °F - 62.6 °F 73% 30.03 in 10.0 mi NNW 8.1 mph - N/A   Clear
8:35 PM 69.8 °F - 62.6 °F 78% 30.03 in 10.0 mi NNW 6.9 mph - N/A   Clear
8:52 PM 69.8 °F - 62.6 °F 78% 30.04 in 10.0 mi Calm Calm - N/A   Clear
9:51 PM 66.2 °F - 60.8 °F 83% 30.06 in 10.0 mi North 6.9 mph - N/A   Clear
10:15 PM - - - N/A% 30.07 in - Calm Calm - N/A   Unknown
10:31 PM 64.4 °F - 57.2 °F 77% 30.06 in 10.0 mi Calm Calm - N/A   Unknown
11:32 PM 62.6 °F - 55.4 °F 77% 30.08 in 10.0 mi Calm Calm - N/A   Clear